[[{"header":{"parameterUnit":"m.s-1","parameterCategory":1,"la1":30.2991,"la2":30.254,"lo1":-89.0895,"lo2":-89.0444,"dy":0.0017,"dx":0.0017,"nx":28,"ny":28,"refTime":"2025-05-23T09:00:00:Z","depth":0,"parameterNumber":2,"parameterNumberName":"U-component_of_WINDS"},"data":[0,0,0,0,0,0,0,0,0,0,0,0,0,0,0,0,0,0,0,0,0,0,0,0,0,0,0,0,0,0,0,0,0,0,0,0,0,0,0,0,0,0,0,0,0,0,0,0,0,0,0,0,0,0,0,0,0,0,-0.5198,-0.5197,0,-0.5133,-0.5133,-0.5132,-0.5124,-0.5124,-0.5125,-0.5126,-0.5056,-0.5054,-0.5051,0,0,0,0,0,0,0,0,0,0,0,0,0,-0.5311,-0.5309,-0.5198,-0.5197,-0.5196,-0.5133,-0.5133,-0.5132,-0.5124,-0.5124,-0.5125,-0.5126,-0.5057,-0.5054,-0.5051,0,0,0,0,0,0,0,0,0,0,0,0,0,-0.5256,-0.5309,-0.5198,-0.5185,-0.5183,-0.5134,-0.5132,-0.5131,-0.5124,-0.5125,-0.5125,-0.5126,-0.5058,-0.5054,-0.5051,-0.5009,0,0,-0.504,-0.5038,0,0,0,0,0,0,0,0,-0.5259,-0.5252,-0.5187,-0.5186,-0.5183,-0.5138,-0.5147,-0.509,-0.5123,-0.5146,-0.5126,-0.5127,-0.5082,-0.5077,-0.5062,-0.5006,-0.5003,-0.5039,-0.5037,-0.5036,-0.5034,0,0,0,0,0,0,0,-0.5263,-0.5254,-0.5172,-0.5186,-0.5184,-0.5181,-0.5174,-0.5136,-0.5109,-0.5144,-0.5143,-0.5136,-0.5081,-0.5066,-0.5061,-0.5002,-0.5039,-0.5036,-0.5034,-0.5032,-0.4908,-0.4907,0,0,0,0,0,0,-0.527,-0.5258,-0.5174,-0.517,-0.5224,-0.5178,-0.5171,-0.5151,-0.511,-0.5105,-0.5135,-0.5136,-0.5072,-0.5065,-0.5058,-0.5007,-0.5036,-0.5032,-0.503,-0.4909,-0.4908,-0.4907,0,0,0,0,0,0,-0.5272,-0.5262,-0.5177,-0.5214,-0.5203,-0.5175,-0.5154,-0.515,-0.5134,-0.5103,-0.5098,-0.5125,-0.5072,-0.5063,-0.5022,-0.5004,-0.503,-0.5027,-0.4911,-0.4909,-0.4907,-0.4904,0,0,0,0,0,0,-0.5275,-0.5263,-0.5248,-0.5213,-0.5201,-0.5142,-0.5153,-0.5148,-0.5128,-0.5128,-0.5092,-0.5087,-0.5072,-0.5027,-0.5018,-0.5,-0.5024,-0.4912,-0.491,-0.4908,-0.4905,-0.4902,-0.4899,0,0,0,0,0,-0.5279,-0.5248,-0.5247,-0.5237,-0.5181,-0.5141,-0.5134,-0.5119,-0.5127,-0.5111,-0.5091,-0.5088,-0.5008,-0.5023,-0.5013,-0.4993,-0.4913,-0.491,-0.4908,-0.4907,-0.4903,-0.49,0,0,0,0,0,0,-0.5279,-0.5243,-0.5241,-0.5199,-0.5173,-0.514,-0.5119,-0.5115,-0.5086,-0.5087,-0.5069,-0.5061,-0.502,-0.5002,-0.502,-0.4951,-0.4961,-0.4956,-0.4964,-0.496,-0.4957,-0.4962,-0.5021,0,0,0,0,0,-0.5275,-0.5247,-0.5216,-0.5181,-0.5169,-0.5146,-0.5128,-0.5119,-0.5091,-0.508,-0.5057,-0.503,-0.4999,-0.4978,-0.4948,-0.4903,-0.4895,-0.4884,-0.4881,-0.4879,-0.4875,-0.485,-0.4845,-0.4899,-0.4899,-0.4899,0,0,-0.5264,-0.5241,-0.5224,-0.5181,-0.516,-0.513,-0.5137,-0.5105,-0.5083,-0.5075,-0.5035,-0.5017,-0.4985,-0.4942,-0.4922,-0.4926,-0.4859,-0.4876,-0.4875,-0.4872,-0.4847,-0.4842,-0.4838,-0.4897,-0.4897,-0.4897,0,0,-0.523,-0.521,-0.5178,-0.5158,-0.5127,-0.5112,-0.5105,-0.5072,-0.5061,-0.502,-0.5014,-0.4987,-0.4933,-0.4911,-0.4893,-0.4851,-0.4847,-0.4841,-0.4826,-0.4802,-0.4798,-0.4794,-0.4779,-0.4774,-0.4838,-0.4838,-0.4838,0,-0.522,-0.5176,-0.5163,-0.5131,-0.5112,-0.5106,-0.5074,-0.5054,-0.5014,-0.5001,-0.5007,-0.494,-0.4918,-0.4869,-0.4859,-0.4845,-0.4835,-0.4845,-0.48,-0.4796,-0.4792,-0.4777,-0.4772,-0.4837,-0.4837,-0.4837,-0.4837,0,-0.5166,-0.5136,-0.5114,-0.5077,-0.5056,-0.5024,-0.5005,-0.4985,-0.4978,-0.4963,-0.4921,-0.4895,-0.4859,-0.4847,-0.4839,-0.4798,-0.4801,-0.4804,-0.4814,-0.4787,-0.4772,-0.4767,-0.4836,-0.4837,-0.4837,-0.4837,0,0,-0.5129,-0.5086,-0.5078,-0.5062,-0.5028,-0.5003,-0.4971,-0.4938,-0.4921,-0.4894,-0.4866,-0.4822,-0.4824,-0.4803,-0.4793,-0.4772,-0.474,-0.4776,-0.4775,-0.477,-0.4692,-0.4691,-0.4684,-0.4738,-0.4737,-0.4736,-0.4695,0,-0.509,-0.5035,-0.5022,-0.4973,-0.4945,-0.4939,-0.4911,-0.4887,-0.4872,-0.4845,-0.4827,-0.4796,-0.4802,-0.4789,-0.4768,-0.4749,-0.4724,-0.4751,-0.4711,-0.471,-0.4719,-0.4677,-0.4675,-0.4637,-0.4689,-0.4688,-0.4688,0,-0.5038,-0.5011,-0.496,-0.4931,-0.4918,-0.4894,-0.4862,-0.4837,-0.4809,-0.4799,-0.4777,-0.4769,-0.4735,-0.4747,-0.47,-0.4718,-0.4701,-0.4689,-0.4687,-0.4682,-0.4697,-0.467,-0.4625,-0.4619,-0.4679,-0.468,-0.468,0,-0.5016,-0.4967,-0.493,-0.4916,-0.4881,-0.4864,-0.4848,-0.4821,-0.4802,-0.4774,-0.4761,-0.4729,-0.4711,-0.4686,-0.467,-0.4681,-0.4623,-0.4634,-0.4614,-0.4614,-0.4601,-0.4602,-0.4552,-0.4591,-0.4591,-0.4591,-0.4591,0,-0.4974,-0.4943,-0.492,-0.4898,-0.4863,-0.4848,-0.4814,-0.4798,-0.4774,-0.4748,-0.474,-0.4715,-0.4695,-0.4667,-0.4654,-0.4617,-0.4609,-0.4599,-0.4596,-0.46,-0.4601,-0.4588,-0.459,-0.459,-0.459,-0.459,-0.4591,0,-0.4943,-0.4926,-0.4886,-0.4856,-0.4848,-0.4824,-0.4798,-0.4775,-0.476,-0.4727,-0.4718,-0.4695,-0.4662,-0.4643,-0.4601,-0.4592,-0.455,-0.4548,-0.456,-0.4558,-0.4539,-0.4541,-0.4478,-0.4469,-0.4514,-0.4514,-0.4514,0,-0.4917,-0.4893,-0.4861,-0.4844,-0.4828,-0.48,-0.4781,-0.4765,-0.4745,-0.4712,-0.4694,-0.4661,-0.4633,-0.4581,-0.4559,-0.4527,-0.4524,-0.4504,-0.4519,-0.4523,-0.4523,-0.4525,-0.4522,-0.4501,-0.4501,-0.4501,-0.45,0,-0.4873,-0.4866,-0.484,-0.481,-0.4788,-0.4763,-0.4739,-0.4725,-0.4705,-0.4683,-0.465,-0.4629,-0.4587,-0.4554,-0.452,-0.4503,-0.4498,-0.4496,-0.4489,-0.4493,-0.45,-0.4496,-0.4553,-0.4497,-0.4498,-0.4498,-0.4498,-0.4498,-0.4843,-0.4822,-0.4797,-0.4767,-0.4748,-0.4726,-0.4703,-0.4686,-0.4659,-0.4624,-0.4617,-0.4582,-0.4554,-0.4509,-0.4491,-0.4463,-0.4466,-0.4457,-0.4454,-0.4452,-0.4451,-0.4506,-0.4456,-0.4456,-0.4456,-0.4456,-0.4457,0,-0.4799,-0.4783,-0.4756,-0.4723,-0.4699,-0.4699,-0.4672,-0.4652,-0.4622,-0.4597,-0.4571,-0.4533,-0.4501,-0.4477,-0.4445,-0.4427,-0.4423,-0.4418,-0.4419,-0.4415,-0.445,-0.4459,-0.4421,-0.4421,-0.4421,-0.4421,-0.4421,-0.4421,-0.4773,-0.4737,-0.4728,-0.4682,-0.4665,-0.4632,-0.4617,-0.4596,-0.4577,-0.4535,-0.4509,-0.4494,-0.447,-0.4436,-0.4406,-0.44,-0.4388,-0.4383,-0.4376,-0.4409,-0.4413,-0.4416,-0.4424,-0.4381,-0.438,-0.4344,-0.4343,-0.4343]},{"header":{"parameterUnit":"m.s-1","parameterCategory":1,"la1":30.2991,"la2":30.254,"lo1":-89.0895,"lo2":-89.0444,"dy":0.0017,"dx":0.0017,"nx":28,"ny":28,"refTime":"2025-05-23T09:00:00:Z","depth":0,"parameterNumber":3,"parameterNumberName":"V-component_of_WINDS"},"data":[0,0,0,0,0,0,0,0,0,0,0,0,0,0,0,0,0,0,0,0,0,0,0,0,0,0,0,0,0,0,0,0,0,0,0,0,0,0,0,0,0,0,0,0,0,0,0,0,0,0,0,0,0,0,0,0,0,0,4.6089,4.6089,0,4.6075,4.6075,4.6074,4.598,4.5978,4.5976,4.5973,4.5958,4.596,4.5962,0,0,0,0,0,0,0,0,0,0,0,0,0,4.6036,4.6038,4.6089,4.6089,4.6089,4.6075,4.6075,4.6074,4.5981,4.5978,4.5975,4.5972,4.5958,4.596,4.5962,0,0,0,0,0,0,0,0,0,0,0,0,0,4.6044,4.6038,4.6089,4.6041,4.6036,4.6075,4.6075,4.6074,4.5981,4.5978,4.5974,4.5971,4.5957,4.596,4.5962,4.6047,0,0,4.597,4.5971,0,0,0,0,0,0,0,0,4.6044,4.6046,4.6048,4.6044,4.6039,4.6026,4.605,4.6065,4.5982,4.6002,4.5973,4.5969,4.5984,4.5984,4.5989,4.6046,4.6046,4.597,4.5972,4.5973,4.5974,0,0,0,0,0,0,0,4.6044,4.6047,4.6084,4.6048,4.6043,4.6019,4.6017,4.6053,4.6012,4.6,4.5993,4.5993,4.598,4.5986,4.5988,4.6045,4.597,4.5973,4.5974,4.5975,4.6172,4.6176,0,0,0,0,0,0,4.605,4.6047,4.6084,4.6083,4.6033,4.6023,4.602,4.6033,4.6012,4.6005,4.5996,4.5988,4.5984,4.5985,4.5987,4.6084,4.5973,4.5976,4.5977,4.6169,4.6173,4.6177,0,0,0,0,0,0,4.6049,4.6054,4.6085,4.6063,4.6065,4.6028,4.6043,4.6035,4.6041,4.6008,4.6001,4.6009,4.5981,4.5983,4.6033,4.6083,4.5977,4.5979,4.6164,4.617,4.6175,4.6281,0,0,0,0,0,0,4.6048,4.6054,4.6086,4.6064,4.6067,4.6131,4.6046,4.6037,4.6045,4.6036,4.6019,4.6013,4.5978,4.6029,4.6035,4.6084,4.5981,4.616,4.6167,4.6173,4.6273,4.629,4.6304,0,0,0,0,0,4.6046,4.6116,4.6088,4.6093,4.6106,4.6134,4.6135,4.6095,4.605,4.6081,4.6061,4.6013,4.6076,4.6035,4.6041,4.6092,4.6156,4.6165,4.6173,4.6266,4.6286,4.6303,0,0,0,0,0,0,4.6145,4.6113,4.6081,4.6146,4.6144,4.6118,4.6157,4.6117,4.6127,4.6118,4.6067,4.6064,4.6121,4.6111,4.6066,4.6173,4.6108,4.6118,4.6177,4.6196,4.6211,4.6212,4.5983,0,0,0,0,0,4.6174,4.62,4.617,4.6231,4.6231,4.6195,4.6206,4.6174,4.617,4.6168,4.6151,4.6148,4.6167,4.6181,4.6197,4.6271,4.6266,4.6309,4.6324,4.6337,4.6346,4.6385,4.6404,4.6204,4.6204,4.6204,0,0,4.6234,4.622,4.624,4.625,4.6245,4.6273,4.6194,4.6227,4.6248,4.6173,4.6219,4.6207,4.62,4.6263,4.629,4.6256,4.64,4.6348,4.6358,4.636,4.6395,4.6414,4.6431,4.621,4.6209,4.6208,0,0,4.6359,4.6351,4.6401,4.6397,4.639,4.6365,4.6377,4.6358,4.6347,4.6392,4.6337,4.6361,4.6395,4.6393,4.6396,4.6521,4.6478,4.6528,4.6608,4.6647,4.6663,4.6676,4.6721,4.6738,4.6537,4.6538,4.6538,0,4.6435,4.6476,4.6431,4.6468,4.6474,4.6408,4.6458,4.6457,4.6455,4.6461,4.6424,4.6466,4.6457,4.6518,4.6549,4.6554,4.6566,4.6529,4.6664,4.6677,4.6689,4.6731,4.6749,4.6544,4.6543,4.6542,4.6542,0,4.657,4.6599,4.6639,4.664,4.6651,4.6694,4.6656,4.6673,4.6641,4.6621,4.6668,4.6655,4.6668,4.668,4.6649,4.6737,4.6717,4.6673,4.6607,4.6715,4.6754,4.677,4.6552,4.655,4.6548,4.6547,0,0,4.6755,4.6731,4.6747,4.6746,4.6734,4.6755,4.6796,4.6808,4.6823,4.6825,4.6858,4.6889,4.6848,4.6852,4.6821,4.6854,4.6955,4.6806,4.6805,4.6834,4.7052,4.7085,4.7104,4.6926,4.6929,4.6932,4.7052,0,4.6875,4.6942,4.6904,4.6977,4.7003,4.6942,4.6977,4.6974,4.6956,4.6976,4.6956,4.6979,4.6923,4.6925,4.6956,4.6936,4.6998,4.6927,4.6957,4.6958,4.696,4.7124,4.7159,4.7274,4.7067,4.707,4.7071,0,4.7023,4.7031,4.7107,4.7091,4.71,4.7133,4.7141,4.7161,4.7156,4.714,4.7146,4.7106,4.7145,4.708,4.7133,4.7086,4.7096,4.7088,4.7092,4.7093,4.7021,4.713,4.7309,4.7327,4.7095,4.7093,4.7091,0,4.7151,4.7181,4.723,4.7232,4.7213,4.7238,4.7231,4.7223,4.7233,4.7241,4.7247,4.7259,4.7265,4.7276,4.7241,4.7197,4.7299,4.7231,4.7287,4.7288,4.7311,4.731,4.7495,4.7318,4.7318,4.7318,4.7317,0,4.7288,4.7337,4.7287,4.7318,4.7371,4.7327,4.7381,4.7368,4.7361,4.7388,4.7336,4.7362,4.7314,4.7336,4.7309,4.7357,4.7361,4.7349,4.7342,4.7354,4.7356,4.736,4.7351,4.7322,4.7321,4.732,4.7319,0,4.7439,4.7408,4.7458,4.7437,4.7433,4.7473,4.7455,4.7482,4.7461,4.7496,4.7502,4.7469,4.7492,4.7458,4.7478,4.7459,4.7526,4.7506,4.7528,4.7522,4.758,4.7575,4.7774,4.7797,4.7606,4.7608,4.7609,0,4.7529,4.7565,4.7548,4.7563,4.7559,4.7583,4.7594,4.7552,4.7564,4.7562,4.759,4.7609,4.7621,4.7661,4.7639,4.7654,4.7634,4.7702,4.7636,4.7647,4.7635,4.7633,4.7637,4.7716,4.7718,4.772,4.7722,0,4.7691,4.7674,4.7691,4.7703,4.7717,4.7724,4.7727,4.7742,4.7698,4.7715,4.7738,4.7749,4.7769,4.7788,4.7797,4.779,4.775,4.7743,4.7757,4.777,4.7781,4.7776,4.7565,4.7739,4.7737,4.7736,4.7735,4.7734,4.7814,4.7844,4.7837,4.7858,4.7856,4.7861,4.7886,4.7868,4.7887,4.79,4.7874,4.7904,4.7898,4.7907,4.7905,4.7927,4.7897,4.7917,4.7922,4.7928,4.7937,4.7778,4.7929,4.7928,4.7928,4.7927,4.7927,0,4.7974,4.7967,4.7987,4.7993,4.801,4.797,4.7972,4.7988,4.8015,4.8014,4.8027,4.8055,4.8073,4.8053,4.8068,4.8091,4.8072,4.8096,4.8094,4.8093,4.7963,4.795,4.8111,4.8111,4.8111,4.8111,4.8111,4.8111,4.8059,4.8108,4.809,4.8137,4.8129,4.8158,4.8163,4.8167,4.8166,4.8198,4.8214,4.8201,4.8192,4.8206,4.8222,4.8215,4.8223,4.8254,4.8241,4.812,4.8102,4.8085,4.8072,4.8256,4.8257,4.8369,4.837,4.8371]}]]